Time,TemperatureF,DewpointF,PressureIn,WindDirection,WindDirectionDegrees,WindSpeedMPH,WindSpeedGustMPH,Humidity,HourlyPrecipIn,Conditions,Clouds,dailyrainin,SoftwareType,DateUTC
2013-03-20 00:08:00,31.6,31.1,30.09,East,90,7.4,-999.0,98,-99.99,,,0.00,Acu-Link.com,2013-03-20 04:08:00,
2013-03-20 00:23:00,30.9,30.4,30.10,NW,315,4.7,-999.0,98,-99.99,,,0.00,Acu-Link.com,2013-03-20 04:23:00,
2013-03-20 00:39:00,28.4,27.9,30.10,West,270,3.8,-999.0,98,-99.99,,,0.00,Acu-Link.com,2013-03-20 04:39:00,
2013-03-20 00:54:00,27.7,27.2,30.10,WNW,292,4.7,-999.0,98,-99.99,,,0.00,Acu-Link.com,2013-03-20 04:54:00,
2013-03-20 01:09:00,27.5,27.0,30.11,SW,225,6.7,-999.0,98,-99.99,,,0.00,Acu-Link.com,2013-03-20 05:09:00,
2013-03-20 01:24:00,27.7,27.2,30.10,West,270,3.8,-999.0,98,-99.99,,,0.00,Acu-Link.com,2013-03-20 05:24:00,
2013-03-20 01:40:00,27.7,27.2,30.11,SSW,202,2.2,-999.0,98,-99.99,,,0.00,Acu-Link.com,2013-03-20 05:40:00,
2013-03-20 01:55:00,27.1,26.7,30.12,ESE,112,1.1,-999.0,98,-99.99,,,0.00,Acu-Link.com,2013-03-20 05:55:00,
2013-03-20 02:10:00,27.0,26.5,30.12,WNW,292,0.0,-999.0,98,-99.99,,,0.00,Acu-Link.com,2013-03-20 06:10:00,
2013-03-20 02:25:00,26.6,26.1,30.12,WNW,292,1.6,-999.0,98,-99.99,,,0.00,Acu-Link.com,2013-03-20 06:25:00,
2013-03-20 02:40:00,26.2,25.8,30.12,WSW,247,1.6,-999.0,98,-99.99,,,0.00,Acu-Link.com,2013-03-20 06:40:00,
2013-03-20 02:56:00,25.9,25.4,30.12,SSW,202,1.6,-999.0,98,-99.99,,,0.00,Acu-Link.com,2013-03-20 06:56:00,
2013-03-20 03:26:00,24.6,24.1,30.12,West,270,0.0,-999.0,98,-99.99,,,0.00,Acu-Link.com,2013-03-20 07:26:00,
2013-03-20 03:41:00,23.9,23.4,30.12,South,180,0.0,-999.0,98,-99.99,,,0.00,Acu-Link.com,2013-03-20 07:41:00,
2013-03-20 03:57:00,23.0,22.5,30.13,SW,225,0.0,-999.0,98,-99.99,,,0.00,Acu-Link.com,2013-03-20 07:57:00,
2013-03-20 04:13:00,22.5,22.0,30.12,WSW,247,0.0,-999.0,98,-99.99,,,0.00,Acu-Link.com,2013-03-20 08:13:00,
2013-03-20 04:29:00,22.3,21.8,30.12,WSW,247,0.0,-999.0,98,-99.99,,,0.00,Acu-Link.com,2013-03-20 08:29:00,
2013-03-20 04:44:00,20.7,20.2,30.13,NW,315,1.1,-999.0,98,-99.99,,,0.00,Acu-Link.com,2013-03-20 08:44:00,
2013-03-20 04:59:00,21.4,20.9,30.13,SW,225,2.2,-999.0,98,-99.99,,,0.00,Acu-Link.com,2013-03-20 08:59:00,
2013-03-20 05:15:00,22.1,21.6,30.13,West,270,2.7,-999.0,98,-99.99,,,0.00,Acu-Link.com,2013-03-20 09:15:00,
2013-03-20 05:30:00,21.9,21.4,30.13,WSW,247,2.7,-999.0,98,-99.99,,,0.00,Acu-Link.com,2013-03-20 09:30:00,
2013-03-20 05:45:00,22.1,21.6,30.14,NNW,337,2.2,-999.0,98,-99.99,,,0.00,Acu-Link.com,2013-03-20 09:45:00,
2013-03-20 06:00:00,22.3,21.8,30.14,South,180,2.2,-999.0,98,-99.99,,,0.00,Acu-Link.com,2013-03-20 10:00:00,
2013-03-20 06:15:00,22.5,22.0,30.14,West,270,2.7,-999.0,98,-99.99,,,0.00,Acu-Link.com,2013-03-20 10:15:00,
2013-03-20 07:01:00,23.2,22.7,30.15,West,270,2.7,-999.0,98,-99.99,,,0.00,Acu-Link.com,2013-03-20 11:01:00,
2013-03-20 07:16:00,23.2,22.7,30.15,West,270,2.7,-999.0,98,-99.99,,,0.00,Acu-Link.com,2013-03-20 11:16:00,
2013-03-20 07:32:00,24.1,23.6,30.15,NNW,337,4.7,-999.0,98,-99.99,,,0.00,Acu-Link.com,2013-03-20 11:32:00,
2013-03-20 07:47:00,25.2,24.7,30.15,West,270,9.4,-999.0,98,-99.99,,,0.00,Acu-Link.com,2013-03-20 11:47:00,
2013-03-20 08:02:00,25.9,25.4,30.15,SW,225,5.1,-999.0,98,-99.99,,,0.00,Acu-Link.com,2013-03-20 12:02:00,
2013-03-20 08:32:00,26.8,26.3,30.15,WSW,247,5.1,-999.0,98,-99.99,,,0.00,Acu-Link.com,2013-03-20 12:32:00,
2013-03-20 08:48:00,27.5,27.0,30.15,SW,225,5.8,-999.0,98,-99.99,,,0.00,Acu-Link.com,2013-03-20 12:48:00,
2013-03-20 09:03:00,28.8,28.3,30.15,North,0,5.1,-999.0,98,-99.99,,,0.00,Acu-Link.com,2013-03-20 13:03:00,
2013-03-20 09:18:00,30.0,29.5,30.14,West,270,9.4,-999.0,98,-99.99,,,0.00,Acu-Link.com,2013-03-20 13:18:00,
2013-03-20 09:33:00,31.5,31.0,30.14,SW,225,8.3,-999.0,98,-99.99,,,0.00,Acu-Link.com,2013-03-20 13:33:00,
2013-03-20 09:48:00,32.4,31.9,30.14,WNW,292,7.4,-999.0,98,-99.99,,,0.00,Acu-Link.com,2013-03-20 13:48:00,
2013-03-20 10:04:00,32.7,32.2,30.13,SW,225,7.8,-999.0,98,-99.99,,,0.00,Acu-Link.com,2013-03-20 14:04:00,
2013-03-20 10:19:00,33.3,32.8,30.14,WSW,247,12.5,-999.0,98,-99.99,,,0.00,Acu-Link.com,2013-03-20 14:19:00,
2013-03-20 10:34:00,32.9,32.4,30.14,SSW,202,11.0,-999.0,98,-99.99,,,0.00,Acu-Link.com,2013-03-20 14:34:00,
2013-03-20 10:49:00,34.3,33.8,30.14,West,270,14.1,-999.0,98,-99.99,,,0.00,Acu-Link.com,2013-03-20 14:49:00,
2013-03-20 11:04:00,33.4,32.9,30.15,NW,315,16.1,-999.0,98,-99.99,,,0.00,Acu-Link.com,2013-03-20 15:04:00,
2013-03-20 11:20:00,33.3,32.8,30.15,NW,315,11.0,-999.0,98,-99.99,,,0.00,Acu-Link.com,2013-03-20 15:20:00,
2013-03-20 11:35:00,33.8,33.3,30.15,West,270,13.4,-999.0,98,-99.99,,,0.01,Acu-Link.com,2013-03-20 15:35:00,
2013-03-20 11:50:00,36.1,35.6,30.15,WNW,292,4.3,-999.0,98,-99.99,,,0.02,Acu-Link.com,2013-03-20 15:50:00,
2013-03-20 12:05:00,35.2,34.7,30.15,NW,315,11.4,-999.0,98,-99.99,,,0.04,Acu-Link.com,2013-03-20 16:05:00,
2013-03-20 12:21:00,35.6,35.1,30.15,West,270,17.7,-999.0,98,-99.99,,,0.06,Acu-Link.com,2013-03-20 16:21:00,
2013-03-20 12:52:00,37.0,36.5,30.15,West,270,11.0,-999.0,98,-99.99,,,0.09,Acu-Link.com,2013-03-20 16:52:00,
2013-03-20 13:07:00,36.3,35.8,30.15,WSW,247,11.4,-999.0,98,-99.99,,,0.10,Acu-Link.com,2013-03-20 17:07:00,
2013-03-20 13:22:00,38.3,37.8,30.15,SW,225,4.7,-999.0,98,-99.99,,,0.11,Acu-Link.com,2013-03-20 17:22:00,
2013-03-20 13:37:00,38.1,37.6,30.15,NNW,337,19.7,-999.0,98,-99.99,,,0.12,Acu-Link.com,2013-03-20 17:37:00,
2013-03-20 13:52:00,39.0,38.5,30.14,WNW,292,15.0,-999.0,98,-99.99,,,0.13,Acu-Link.com,2013-03-20 17:52:00,
2013-03-20 14:08:00,40.1,39.6,30.13,WSW,247,9.8,-999.0,98,-99.99,,,0.15,Acu-Link.com,2013-03-20 18:08:00,
2013-03-20 14:23:00,36.1,35.6,30.13,WSW,247,5.8,-999.0,98,-99.99,,,0.16,Acu-Link.com,2013-03-20 18:23:00,
2013-03-20 14:38:00,42.4,41.9,30.12,NW,315,6.7,-999.0,98,-99.99,,,0.17,Acu-Link.com,2013-03-20 18:38:00,
2013-03-20 14:53:00,39.9,39.4,30.11,West,270,10.3,-999.0,98,-99.99,,,0.17,Acu-Link.com,2013-03-20 18:53:00,
2013-03-20 15:08:00,41.5,41.0,30.11,West,270,4.7,-999.0,98,-99.99,,,0.18,Acu-Link.com,2013-03-20 19:08:00,
2013-03-20 15:24:00,41.9,41.4,30.11,NW,315,6.3,-999.0,98,-99.99,,,0.19,Acu-Link.com,2013-03-20 19:24:00,
2013-03-20 15:39:00,39.7,39.2,30.11,SSW,202,8.9,-999.0,98,-99.99,,,0.19,Acu-Link.com,2013-03-20 19:39:00,
2013-03-20 15:54:00,39.9,39.4,30.11,NW,315,7.8,-999.0,98,-99.99,,,0.20,Acu-Link.com,2013-03-20 19:54:00,
2013-03-20 16:09:00,39.7,39.2,30.11,NW,315,6.7,-999.0,98,-99.99,,,0.20,Acu-Link.com,2013-03-20 20:09:00,
2013-03-20 16:24:00,40.1,39.6,30.11,SSW,202,5.8,-999.0,98,-99.99,,,0.20,Acu-Link.com,2013-03-20 20:24:00,
2013-03-20 16:40:00,41.0,40.5,30.11,West,270,9.4,-999.0,98,-99.99,,,0.20,Acu-Link.com,2013-03-20 20:40:00,
2013-03-20 16:55:00,41.5,41.0,30.11,WNW,292,3.1,-999.0,98,-99.99,,,0.20,Acu-Link.com,2013-03-20 20:55:00,
2013-03-20 17:10:00,40.6,40.1,30.11,WNW,292,5.1,-999.0,98,-99.99,,,0.20,Acu-Link.com,2013-03-20 21:10:00,
2013-03-20 17:25:00,39.4,38.9,30.11,SSE,157,5.1,-999.0,98,-99.99,,,0.20,Acu-Link.com,2013-03-20 21:25:00,
2013-03-20 17:41:00,39.4,38.9,30.11,WSW,247,7.4,-999.0,98,-99.99,,,0.20,Acu-Link.com,2013-03-20 21:41:00,
2013-03-20 18:11:00,38.5,38.0,30.11,WNW,292,6.7,-999.0,98,-99.99,,,0.20,Acu-Link.com,2013-03-20 22:11:00,
2013-03-20 18:26:00,38.5,38.0,30.11,SW,225,4.7,-999.0,98,-99.99,,,0.20,Acu-Link.com,2013-03-20 22:26:00,
2013-03-20 18:41:00,36.7,36.2,30.12,WNW,292,4.3,-999.0,98,-99.99,,,0.20,Acu-Link.com,2013-03-20 22:41:00,
2013-03-20 18:57:00,36.0,35.5,30.12,SW,225,2.7,-999.0,98,-99.99,,,0.20,Acu-Link.com,2013-03-20 22:57:00,
2013-03-20 19:12:00,35.1,34.6,30.12,NNW,337,2.2,-999.0,98,-99.99,,,0.20,Acu-Link.com,2013-03-20 23:12:00,
2013-03-20 19:27:00,34.3,33.8,30.12,West,270,2.2,-999.0,98,-99.99,,,0.20,Acu-Link.com,2013-03-20 23:27:00,
2013-03-20 19:42:00,33.4,32.9,30.12,West,270,1.6,-999.0,98,-99.99,,,0.20,Acu-Link.com,2013-03-20 23:42:00,
2013-03-20 19:57:00,31.5,31.0,30.13,NW,315,1.6,-999.0,98,-99.99,,,0.20,Acu-Link.com,2013-03-20 23:57:00,
2013-03-20 20:13:00,29.3,28.8,30.13,SSW,202,0.0,-999.0,98,-99.99,,,0.20,Acu-Link.com,2013-03-21 00:13:00,
2013-03-20 20:28:00,28.0,27.5,30.13,WNW,292,0.0,-999.0,98,-99.99,,,0.20,Acu-Link.com,2013-03-21 00:28:00,
2013-03-20 20:43:00,27.0,26.5,30.13,NW,315,1.1,-999.0,98,-99.99,,,0.20,Acu-Link.com,2013-03-21 00:43:00,
2013-03-20 20:58:00,26.1,25.6,30.14,WNW,292,0.0,-999.0,98,-99.99,,,0.20,Acu-Link.com,2013-03-21 00:58:00,
2013-03-20 21:14:00,25.0,24.5,30.14,NW,315,2.2,-999.0,98,-99.99,,,0.20,Acu-Link.com,2013-03-21 01:14:00,
2013-03-20 21:29:00,24.8,24.3,30.14,East,90,0.0,-999.0,98,-99.99,,,0.20,Acu-Link.com,2013-03-21 01:29:00,
2013-03-20 21:44:00,23.7,23.2,30.15,NW,315,0.0,-999.0,98,-99.99,,,0.20,Acu-Link.com,2013-03-21 01:44:00,
2013-03-20 21:59:00,23.0,22.5,30.15,ESE,112,0.0,-999.0,98,-99.99,,,0.20,Acu-Link.com,2013-03-21 01:59:00,
2013-03-20 22:14:00,22.1,21.4,30.15,NNW,337,0.0,-999.0,97,-99.99,,,0.20,Acu-Link.com,2013-03-21 02:14:00,
2013-03-20 22:30:00,22.5,22.0,30.15,NW,315,0.0,-999.0,98,-99.99,,,0.20,Acu-Link.com,2013-03-21 02:30:00,
2013-03-20 22:45:00,21.6,21.1,30.15,West,270,0.0,-999.0,98,-99.99,,,0.20,Acu-Link.com,2013-03-21 02:45:00,
2013-03-20 23:00:00,21.0,20.5,30.14,WNW,292,0.0,-999.0,98,-99.99,,,0.20,Acu-Link.com,2013-03-21 03:00:00,
2013-03-20 23:15:00,21.4,20.9,30.15,NW,315,0.0,-999.0,98,-99.99,,,0.20,Acu-Link.com,2013-03-21 03:15:00,
2013-03-20 23:30:00,21.0,20.5,30.15,WNW,292,0.0,-999.0,98,-99.99,,,0.20,Acu-Link.com,2013-03-21 03:30:00,
2013-03-20 23:45:00,20.8,20.4,30.15,NNW,337,0.0,-999.0,98,-99.99,,,0.20,Acu-Link.com,2013-03-21 03:45:00,